Location: Unspecified
(48.2082°N, 0.0000°E)
Time: 04:30:14
(UTC+00:00)

Tiros 1 despin weight - Pass Details

Date: 21 June 2019
Orbit: 594 x 643 km, 48.2° (Epoch: 12 October)

Event Time Altitude Azimuth Distance (km) Brightness Sun altitude
Rises 06:11:14 0° 279° (W) 2,830 ? 18.8°
Reaches altitude 10° 06:14:23 10° 256° (WSW) 1,928 ? 19.3°
Maximum altitude 06:16:49 15° 222° (SW) 1,645 ? 19.7°
Drops below altitude 10° 06:19:16 10° 188° (S) 1,931 ? 20.1°
Sets 06:22:26 0° 165° (SSE) 2,838 ? 20.6°
